Torna al catalogo

DELTA 1 DEB

AttivoSSO
NORAD 12234·DEBRIS·🇺🇸 United States

Lanciato Mar 5, 1978 da Vandenberg Space Force Base

Loading…

Prossimi Passaggi (prossime 24 ore)

TLE

AggiornatoSource: Space-Track

Epoca: Sep 13, 2026, 23:52 UTC

1 12234U 78026CB  26256.99492692  .00000185  00000-0  14658-3 0  9997
2 12234  99.2411 273.8967 0027946 217.3445 171.8331 14.03777648334366

Traccia DELTA 1 DEB in tempo reale con AllMySat

Download on the App Store